| time (UTC) | temp F | wind direction | speed MPH | gust MPH | rain 1hr in | rain 24hr in | rain mn in | humidity % | barometer mb |
| 20260509034557 | 59 | 261 | 2.0 | 6.0 | 0.00 | 0.00 | 0.00 | 21 | 1012.5 |
| 20260509033043 | 59 | 245 | 2.0 | 7.0 | 0.00 | 0.00 | 0.00 | 21 | 1012.3 |
| 20260509031552 | 59 | 198 | 2.0 | 5.0 | 0.00 | 0.00 | 0.00 | 23 | 1012.3 |
| 20260509030043 | 60 | 196 | 2.0 | 5.0 | 0.00 | 0.00 | 0.00 | 23 | 1012.1 |
| 20260509024540 | 60 | 211 | 3.0 | 5.0 | 0.00 | 0.00 | 0.00 | 23 | 1012.0 |
| 20260509023052 | 61 | 234 | 3.0 | 5.0 | 0.00 | 0.00 | 0.00 | 25 | 1011.9 |
| 20260509021538 | 62 | 246 | 3.0 | 6.0 | 0.00 | 0.00 | 0.00 | 26 | 1011.8 |
| 20260509020037 | 62 | 226 | 3.0 | 6.0 | 0.00 | 0.00 | 0.00 | 28 | 1011.8 |
| 20260509014536 | 64 | 213 | 3.0 | 7.0 | 0.00 | 0.00 | 0.00 | 30 | 1011.7 |
| 20260509013058 | 65 | 212 | 2.0 | 6.0 | 0.00 | 0.00 | 0.00 | 31 | 1011.6 |
| 20260509011537 | 65 | 245 | 2.0 | 7.0 | 0.00 | 0.00 | 0.00 | 32 | 1011.7 |
| 20260509010035 | 66 | 193 | 3.0 | 5.0 | 0.00 | 0.00 | 0.00 | 33 | 1011.7 |
| 20260509004534 | 66 | 224 | 3.0 | 6.0 | 0.00 | 0.00 | 0.00 | 31 | 1011.7 |
| 20260509003033 | 67 | 221 | 2.0 | 6.0 | 0.00 | 0.00 | 0.00 | 32 | 1011.8 |
| 20260509001529 | 69 | 227 | 3.0 | 7.0 | 0.00 | 0.00 | 0.00 | 33 | 1011.9 |
| 20260509000128 | 70 | 248 | 3.0 | 8.0 | 0.00 | 0.00 | 0.00 | 32 | 1011.9 |
| 20260508234526 | 70 | 244 | 4.0 | 8.0 | 0.00 | 0.00 | 0.00 | 31 | 1012.1 |
| 20260508233025 | 71 | 252 | 3.0 | 5.0 | 0.00 | 0.00 | 0.00 | 35 | 1012.0 |
| 20260508231524 | 71 | 240 | 3.0 | 10.0 | 0.00 | 0.00 | 0.00 | 30 | 1012.2 |
| 20260508230044 | 72 | 245 | 3.0 | 8.0 | 0.00 | 0.00 | 0.00 | 29 | 1012.3 |
| 20260508224549 | 72 | 265 | 3.0 | 6.0 | 0.00 | 0.00 | 0.00 | 27 | 1012.5 |
| 20260508223030 | 72 | 277 | 3.0 | 8.0 | 0.00 | 0.00 | 0.00 | 25 | 1012.6 |
| 20260508221519 | 73 | 203 | 4.0 | 7.0 | 0.00 | 0.00 | 0.00 | 25 | 1012.8 |
| 20260508220018 | 73 | 209 | 3.0 | 7.0 | 0.00 | 0.00 | 0.00 | 27 | 1012.9 |
| 20260508214517 | 73 | 252 | 3.0 | 6.0 | 0.00 | 0.00 | 0.00 | 27 | 1013.0 |
| 20260508213014 | 73 | 257 | 3.0 | 7.0 | 0.00 | 0.00 | 0.00 | 27 | 1013.2 |
| 20260508211515 | 73 | 255 | 3.0 | 7.0 | 0.00 | 0.00 | 0.00 | 26 | 1013.2 |
| 20260508210012 | 74 | 255 | 0.0 | 7.0 | 0.00 | 0.00 | 0.00 | 27 | 1013.4 |
| 20260508204516 | 73 | 173 | 3.0 | 9.0 | 0.00 | 0.00 | 0.00 | 26 | 1013.4 |
| 20260508203008 | 73 | 266 | 2.0 | 10.0 | 0.00 | 0.00 | 0.00 | 26 | 1013.3 |
| 20260508201508 | 74 | 200 | 2.0 | 8.0 | 0.00 | 0.00 | 0.00 | 26 | 1013.4 |
| 20260508200009 | 73 | 228 | 3.0 | 8.0 | 0.00 | 0.00 | 0.00 | 26 | 1013.5 |
| 20260508194505 | 73 | 267 | 2.0 | 9.0 | 0.00 | 0.00 | 0.00 | 25 | 1013.7 |
| 20260508193003 | 73 | 152 | 3.0 | 8.0 | 0.00 | 0.00 | 0.00 | 24 | 1013.8 |
| 20260508191504 | 72 | 298 | 2.0 | 8.0 | 0.00 | 0.00 | 0.00 | 24 | 1013.9 |
| 20260508190111 | 72 | 230 | 3.0 | 7.0 | 0.00 | 0.00 | 0.00 | 24 | 1014.0 |
| 20260508184635 | 73 | 252 | 3.0 | 7.0 | 0.00 | 0.00 | 0.00 | 23 | 1014.3 |
| 20260508183112 | 73 | 265 | 2.0 | 6.0 | 0.00 | 0.00 | 0.00 | 23 | 1014.4 |
| 20260508181557 | 72 | 206 | 3.0 | 5.0 | 0.00 | 0.00 | 0.00 | 25 | 1014.4 |
| 20260508180100 | 72 | 174 | 3.0 | 7.0 | 0.00 | 0.00 | 0.00 | 25 | 1014.4 |
| 20260508174614 | 72 | 186 | 2.0 | 6.0 | 0.00 | 0.00 | 0.00 | 26 | 1014.4 |
| 20260508173059 | 71 | 229 | 2.0 | 5.0 | 0.00 | 0.00 | 0.00 | 29 | 1014.3 |
| 20260508171610 | 70 | 319 | 2.0 | 4.0 | 0.00 | 0.00 | 0.00 | 29 | 1014.2 |
| 20260508170044 | 70 | 245 | 2.0 | 5.0 | 0.00 | 0.00 | 0.00 | 32 | 1014.1 |
| 20260508164542 | 68 | 284 | 1.0 | 3.0 | 0.00 | 0.00 | 0.00 | 33 | 1014.1 |
| 20260508163038 | 67 | 293 | 2.0 | 7.0 | 0.00 | 0.00 | 0.00 | 34 | 1014.2 |
| 20260508161542 | 66 | 250 | 2.0 | 7.0 | 0.00 | 0.00 | 0.00 | 32 | 1014.4 |
| 20260508160036 | 65 | 209 | 2.0 | 4.0 | 0.00 | 0.00 | 0.00 | 33 | 1014.3 |
| 20260508154530 | 64 | 245 | 2.0 | 3.0 | 0.00 | 0.00 | 0.00 | 36 | 1014.3 |
| 20260508153036 | 64 | 242 | 1.0 | 4.0 | 0.00 | 0.00 | 0.00 | 37 | 1014.4 |
| 20260508151536 | 63 | 286 | 1.0 | 4.0 | 0.00 | 0.00 | 0.00 | 36 | 1014.3 |
| 20260508150026 | 62 | 289 | 1.0 | 3.0 | 0.00 | 0.00 | 0.00 | 36 | 1014.2 |
| 20260508144518 | 61 | 299 | 2.0 | 3.0 | 0.00 | 0.00 | 0.00 | 37 | 1014.1 |
| 20260508143014 | 59 | 306 | 1.0 | 3.0 | 0.00 | 0.00 | 0.00 | 39 | 1014.0 |
| 20260508141512 | 57 | 171 | 1.0 | 3.0 | 0.00 | 0.00 | 0.00 | 41 | 1013.9 |
| 20260508140009 | 53 | 170 | 0.0 | 0.0 | 0.00 | 0.00 | 0.00 | 48 | 1013.9 |
| 20260508134508 | 52 | 170 | 0.0 | 0.0 | 0.00 | 0.00 | 0.00 | 49 | 1013.7 |
| 20260508133010 | 50 | 170 | 0.0 | 0.0 | 0.00 | 0.00 | 0.00 | 52 | 1013.7 |
| 20260508131506 | 51 | 170 | 0.0 | 0.0 | 0.00 | 0.00 | 0.00 | 54 | 1013.7 |
| 20260508130005 | 51 | 170 | 0.0 | 0.0 | 0.00 | 0.00 | 0.00 | 52 | 1013.7 |
| 20260508124505 | 51 | 170 | 0.0 | 0.0 | 0.00 | 0.00 | 0.00 | 55 | 1013.5 |
| 20260508123004 | 52 | 170 | 0.0 | 0.0 | 0.00 | 0.00 | 0.00 | 55 | 1013.5 |
| 20260508121602 | 52 | 170 | 0.0 | 0.0 | 0.00 | 0.00 | 0.00 | 53 | 1013.4 |
| 20260508120101 | 52 | 170 | 0.0 | 0.0 | 0.00 | 0.00 | 0.00 | 52 | 1013.5 |
| 20260508114606 | 52 | 170 | 0.0 | 0.0 | 0.00 | 0.00 | 0.00 | 52 | 1013.4 |
| 20260508113106 | 52 | 170 | 0.0 | 4.0 | 0.00 | 0.00 | 0.00 | 51 | 1013.4 |
| 20260508111600 | 52 | 194 | 0.0 | 0.0 | 0.00 | 0.00 | 0.00 | 51 | 1013.5 |
| 20260508110050 | 54 | 194 | 0.0 | 0.0 | 0.00 | 0.00 | 0.00 | 48 | 1013.5 |
| 20260508104551 | 55 | 194 | 0.0 | 1.0 | 0.00 | 0.00 | 0.00 | 43 | 1013.5 |
| 20260508103044 | 56 | 194 | 0.0 | 2.0 | 0.00 | 0.00 | 0.00 | 39 | 1013.7 |
| 20260508101546 | 56 | 194 | 0.0 | 2.0 | 0.00 | 0.00 | 0.00 | 38 | 1013.8 |
| 20260508100040 | 57 | 194 | 0.0 | 2.0 | 0.00 | 0.00 | 0.00 | 37 | 1014.0 |
| 20260508094539 | 57 | 193 | 1.0 | 3.0 | 0.00 | 0.00 | 0.00 | 37 | 1013.9 |
| 20260508093038 | 57 | 194 | 1.0 | 3.0 | 0.00 | 0.00 | 0.00 | 37 | 1014.1 |
| 20260508091602 | 57 | 194 | 1.0 | 4.0 | 0.00 | 0.00 | 0.00 | 37 | 1014.3 |
| 20260508090034 | 57 | 194 | 1.0 | 3.0 | 0.00 | 0.00 | 0.00 | 37 | 1014.4 |
| 20260508084534 | 57 | 194 | 1.0 | 4.0 | 0.00 | 0.00 | 0.00 | 37 | 1014.7 |
| 20260508083037 | 57 | 192 | 1.0 | 3.0 | 0.00 | 0.00 | 0.00 | 36 | 1014.8 |
| 20260508081529 | 57 | 191 | 1.0 | 4.0 | 0.00 | 0.00 | 0.00 | 37 | 1015.0 |
| 20260508080127 | 57 | 191 | 1.0 | 3.0 | 0.00 | 0.00 | 0.00 | 37 | 1015.1 |
| 20260508074527 | 57 | 191 | 1.0 | 3.0 | 0.00 | 0.00 | 0.00 | 37 | 1015.3 |
| 20260508073025 | 57 | 191 | 1.0 | 3.0 | 0.00 | 0.00 | 0.00 | 37 | 1015.4 |
| 20260508071524 | 57 | 179 | 1.0 | 3.0 | 0.00 | 0.00 | 0.00 | 37 | 1015.6 |
| 20260508070019 | 57 | 201 | 2.0 | 4.0 | 0.00 | 0.00 | 0.00 | 36 | 1015.6 |
| 20260508064527 | 57 | 200 | 2.0 | 6.0 | 0.00 | 0.00 | 0.00 | 37 | 1015.7 |
| 20260508063018 | 57 | 233 | 1.0 | 4.0 | 0.00 | 0.00 | 0.00 | 36 | 1015.6 |
| 20260508061517 | 58 | 234 | 1.0 | 4.0 | 0.00 | 0.00 | 0.00 | 35 | 1015.6 |
| 20260508060017 | 58 | 226 | 2.0 | 5.0 | 0.00 | 0.00 | 0.00 | 35 | 1015.5 |
| 20260508054516 | 57 | 202 | 2.0 | 5.0 | 0.00 | 0.00 | 0.00 | 36 | 1015.6 |
| 20260508053016 | 57 | 196 | 1.0 | 4.0 | 0.00 | 0.00 | 0.00 | 38 | 1015.6 |
| 20260508051517 | 57 | 202 | 1.0 | 3.0 | 0.00 | 0.00 | 0.00 | 38 | 1015.7 |
| 20260508050015 | 57 | 202 | 2.0 | 6.0 | 0.00 | 0.00 | 0.00 | 37 | 1015.7 |
| 20260508044514 | 57 | 235 | 1.0 | 4.0 | 0.00 | 0.00 | 0.00 | 37 | 1015.8 |
| 20260508043014 | 57 | 260 | 1.0 | 4.0 | 0.00 | 0.00 | 0.00 | 37 | 1015.6 |
| 20260508041519 | 57 | 216 | 1.0 | 3.0 | 0.00 | 0.00 | 0.00 | 37 | 1015.6 |
| 20260508040012 | 58 | 212 | 2.0 | 4.0 | 0.00 | 0.00 | 0.00 | 38 | 1015.5 |